Location: Courçay
(47.2523°N, 0.8761°E)
Time: 02:18:32
(UTC+00:00)

Meteor 2-12 Rocket - Pass Details

Date: 18 November 2025
Orbit: 935 x 957 km, 82.5° (Epoch: 04 December)

Event Time Altitude Azimuth Distance (km) Brightness Sun altitude
Rises 17:01:06 0° 353° (N) 3,626 7.3 -7.5°
Reaches altitude 10° 17:03:40 10° 357° (N) 2,673 6.6 -7.9°
Maximum altitude 17:09:41 58° 77° (ENE) 1,092 4.5 -8.9°
Drops below altitude 10° 17:15:37 10° 156° (SSE) 2,643 6.7 -9.8°
Sets 17:18:08 0° 160° (SSE) 3,581 7.4 -10.3°
